Hourly Data Report for October 08, 2016

All times are specified in Local Standard Time (LST). Add 1 hour to adjust for Daylight Saving Time where and when it is observed.

CHARLOTTETOWN A
PRINCE EDWARD ISLAND

46°17'21.000" N
63°07'09.000" W
48.50 m
8300301
71706
YYG

Download Data

Hourly Data (October 2016)
Hourly Data Report for October 8, 2016
Temp Definition
°C
Dew Point Temp Definition
°C
Rel Hum Definition
%
Wind Dir Definition
10's deg

Wind Spd Definition
km/h
Visibility Definition
km
Stn Press Definition
kPa
Hmdx Definition


Wind Chill Definition


Weather Definition


TIME
00:00 Legend Double Dagger 15.2 10.9 75 29 11 24.1 101.63     LegendNANA
01:00 Legend Double Dagger 14.2 9.5 73 30 5 24.1 101.62     LegendNANA
02:00 Legend Double Dagger 11.0 9.3 89 19 5 24.1 101.65     Clear
03:00 Legend Double Dagger 11.5 10.3 92 17 7 24.1 101.65     LegendNANA
04:00 Legend Double Dagger 11.1 10.2 94 18 9 24.1 101.64     LegendNANA
05:00 Legend Double Dagger 10.1 9.0 93 20 6 24.1 101.64     Clear
06:00 Legend Double Dagger 10.8 10.2 96 21 9 24.1 101.62     LegendNANA
07:00 Legend Double Dagger 10.6 10.2 97 18 9 24.1 101.65     LegendNANA
08:00 Legend Double Dagger 15.0 14.1 94 18 10 24.1 101.62     Clear
09:00 Legend Double Dagger 16.6 12.4 76 21 13 24.1 101.67     LegendNANA
10:00 Legend Double Dagger 18.7 11.1 61 20 18 24.1 101.66     LegendNANA
11:00 Legend Double Dagger 19.8 11.4 58 18 22 24.1 101.61     Mainly Clear
12:00 Legend Double Dagger 19.9 11.8 59 19 27 24.1 101.59     LegendNANA
13:00 Legend Double Dagger 21.4 11.3 52 18 26 24.1 101.46     LegendNANA
14:00 Legend Double Dagger 21.3 10.9 51 19 32 24.1 101.40     Mostly Cloudy
15:00 Legend Double Dagger 21.8 11.7 52 18 29 24.1 101.31     LegendNANA
16:00 Legend Double Dagger 20.8 9.8 49 20 26 24.1 101.30     LegendNANA
17:00 Legend Double Dagger 19.2 8.4 49 19 24 24.1 101.32     Mostly Cloudy
18:00 Legend Double Dagger 18.1 9.0 55 18 26 24.1 101.27     LegendNANA
19:00 Legend Double Dagger 17.1 9.8 62 17 28 24.1 101.24     LegendNANA
20:00 Legend Double Dagger 15.8 9.8 67 18 21 24.1 101.23     Cloudy
21:00 Legend Double Dagger 15.4 9.8 69 18 25 24.1 101.18     LegendNANA
22:00 Legend Double Dagger 14.8 9.7 71 18 23 24.1 101.20     LegendNANA
23:00 Legend Double Dagger 14.8 9.7 71 19 27 24.1 101.15     Cloudy

Notes on Data Quality.

Legend

  • E = Estimated
  • M = Missing
  • NA = Not Available
  • ‡ = Partner data that is not subject to review by the National Climate Archives
Date modified: